Location: DARK SKY Beskydy - Park tmavé oblohy, www.darkskybeskydy.cz
(49.4926°N, 18.5016°E)
Time: 03:36:36
(UTC+01:00)

Envisat - Pass Details

Date: 02 December 2022
Orbit: 763 x 765 km, 98.2° (Epoch: 05 February)

Event Time Altitude Azimuth Distance (km) Brightness Sun altitude
Rises 05:55:40 0° 1° (N) 3,245 6.1 -13.3°
Reaches altitude 10° 05:58:53 10° 340° (NNW) 2,314 5.1 -12.8°
Enters shadow 06:01:20 15° 311° (NW) 1,971 4.6 -12.5°
